Date,TemperatureHighF,TemperatureAvgF,TemperatureLowF,DewpointHighF,DewpointAvgF,DewpointLowF,HumidityHigh,HumidityAvg,HumidityLow,PressureMaxIn,PressureMinIn,WindSpeedMaxMPH,WindSpeedAvgMPH,GustSpeedMaxMPH,PrecipitationSumIn
2013-2-1,38,32,23,27,12,2,69,44,22,0.00,40.00,10,4,27,0.01
2013-2-2,43,31,17,31,9,5,79,43,22,0.00,40.00,3,1,15,0.00
2013-2-3,51,39,32,33,28,18,98,68,33,0.00,40.00,6,2,18,0.00
2013-2-4,51,37,27,25,19,15,71,50,29,0.00,40.00,3,1,25,0.00
2013-2-5,63,45,36,33,29,24,75,55,32,0.00,40.00,3,1,9,0.00
2013-2-6,61,46,33,33,29,23,86,55,26,0.00,40.00,6,2,118,0.00
2013-2-7,48,40,32,41,34,27,98,80,57,0.00,40.00,4,2,21,0.74
2013-2-8,52,43,39,43,38,26,98,84,50,0.00,40.00,7,4,29,1.53
2013-2-9,52,40,29,26,19,14,79,47,23,0.00,40.00,5,3,19,0.02
2013-2-10,54,40,26,31,19,15,69,45,25,0.00,40.00,4,1,103,0.00
2013-2-11,62,53,42,61,52,31,99,95,66,0.00,40.00,4,2,14,0.07
2013-2-12,61,52,42,55,32,24,97,50,24,0.00,40.00,6,2,34,0.01
2013-2-13,48,46,42,47,43,32,99,91,53,0.00,40.00,7,1,27,0.18
2013-2-14,54,42,32,38,34,32,98,76,46,0.00,40.00,3,1,15,0.01
2013-2-15,66,46,32,37,32,27,98,66,25,0.00,40.00,3,1,23,0.00
2013-2-16,46,37,32,36,33,30,98,89,60,0.00,40.00,4,1,38,0.13
2013-2-17,35,30,25,30,14,4,94,55,29,0.00,40.00,9,3,61,0.01
2013-2-18,56,34,17,21,13,6,75,46,20,0.00,40.00,3,1,16,0.01
2013-2-19,54,42,31,51,36,21,98,80,60,0.00,40.00,4,1,14,0.01
2013-2-20,53,41,29,36,16,8,87,40,17,0.00,40.00,6,3,19,0.00
2013-2-21,53,39,25,21,16,12,67,42,23,0.00,40.00,5,2,15,0.00
2013-2-22,42,37,32,35,25,16,98,65,41,0.00,40.00,3,1,107,0.10
2013-2-23,43,39,35,42,38,34,98,98,96,0.00,40.00,4,2,11,0.54
2013-2-24,65,48,39,47,35,22,98,67,29,0.00,40.00,5,2,15,0.03
2013-2-25,44,36,30,27,22,20,78,56,38,0.00,40.00,3,1,15,0.02
2013-2-26,56,43,31,56,40,25,99,89,71,0.00,40.00,7,2,18,0.73
2013-2-27,63,49,39,51,39,33,99,72,35,0.00,40.00,6,2,153,0.01
2013-2-28,50,43,34,38,29,23,98,62,37,0.00,40.00,6,2,65,0.00